Regional Weather Roundup
Issued by NWS

Home | Current Version | Previous Version | Graphics & Text | Print | Product List | Glossary Off
Versions: 1 2 3 4 5 6 7 8 9 10 11 12 13 14 15 16 17 18 19 20 21 22 23 24 25 26 27 28 29 30 31 32 33 34 35 36 37 38 39 40 41 42 43 44 45 46 47 48 49 50

000
ASUS43 KLSX 251107
RWRMO

WEATHER SUMMARY FOR MISSOURI
NATIONAL WEATHER SERVICE SPRINGFIELD MO
600 AM CDT SAT MAR 25 2017

NOTE: "FAIR" INDICATES FEW OR NO CLOUDS BELOW 12,000 FEET WITH NO
       SIGNIFICANT WEATHER AND/OR OBSTRUCTIONS TO VISIBILITY.
       CURRENT SKY AND/OR WEATHER CONDITIONS ARE NOT AVAILABLE FOR
       CHILLICOTHE AND FARMINGTON.

MOZ001>031-035>038-043-044-053-054-251200-
...NORTHERN AND WESTERN MISSOURI...

CITY           SKY/WX    TMP DP  RH WIND       PRES   REMARKS
KANSAS CTY INT CLOUDY    54  50  86 SE8       29.77R
KANSAS C DTWN  CLOUDY    55  50  83 E5        29.77R
LEE`S SUMMIT   MOCLDY    50  48  93 N5        29.76S
ST JOSEPH      CLOUDY    49  49 100 N10       29.81R FOG
CHILLICOTHE      N/A     56  55  97 NE7       29.79F
KIRKSVILLE     RAIN      55  55 100 NE6       29.80S FOG

$$
MOZ066>068-077>081-088>096-101>105-251200-
...SOUTHWEST MISSOURI...

CITY           SKY/WX    TMP DP  RH WIND       PRES   REMARKS
SPRINGFIELD    CLOUDY    53  50  89 SE14      29.75R
JOPLIN         LGT RAIN  54  54 100 SW12      29.76R
BRANSON        CLOUDY    50  50 100 CALM      29.79R

$$
MOZ032>034-039>042-045>050-055>058-069>072-251200-
...CENTRAL MISSOURI...

CITY           SKY/WX    TMP DP  RH WIND       PRES   REMARKS
COLUMBIA       MOCLDY    54  53  97 SE7       29.79S
JEFFERSON CITY CLOUDY    57  52  83 E6        29.79S
ROLLA          PTCLDY    52  50  93 S10       29.79R
SEDALIA        CLEAR     51  48  89 E5        29.77F
WHITEMAN AFB   CLEAR     49  49 100 E5        29.74F
WARRENSBURG    PTCLDY    50  45  81 N3        29.76S
OSAGE BEACH    CLOUDY   N/A N/A N/A SE8       29.78F

$$
MOZ051-052-059>065-251200-
...EAST CENTRAL MISSOURI...

CITY           SKY/WX    TMP DP  RH WIND       PRES   REMARKS
ST LOUIS INTL  CLOUDY    60  56  86 S12       29.82S
SPIRIT OF STL  MOCLDY    58  56  93 S8        29.81R
ST CHARLES     CLOUDY    58  58 100 SE7       29.80R

$$
MOZ072>076-082>087-097>100-106>115-251200-
...SOUTH CENTRAL AND SOUTHEAST MISSOURI...

CITY           SKY/WX    TMP DP  RH WIND       PRES   REMARKS
CAPE GIRARDEAU LGT RAIN  55  52  89 S14       29.94R
FARMINGTON     CLOUDY    53  52  96 S10       29.88R
POPLAR BLUFF   LGT RAIN  56  55  97 SE13      29.87F
WEST PLAINS    CLOUDY    54  52  93 SE9       29.82S

$$




USA.gov is the U.S. government's official web portal to all federal, state and local government web resources and services.